Hourly Weather Roundup
Issued by NWS Central Illinois

Home | Current Version | Previous Version | Text Only | Print | Product List | Glossary On
Versions: 1 2 3 4 5 6 7 8 9 10 11 12 13 14 15 16 17 18 19 20 21 22 23 24 25 26 27 28 29 30 31 32 33 34 35 36 37 38 39 40 41 42 43 44 45 46 47 48 49 50
000
NZUS43 KILX 181810
HWRILX

AREA WEATHER ROUNDUP
NATIONAL WEATHER SERVICE, LINCOLN IL
100 PM CDT THU SEP 18 2014


CITY           SKY/WX    TMP DP  RH WIND       PRES   REMARKS
BLOOMINGTON    SUNNY     71  48  43 E12G20    30.12F
CHAMPAIGN      SUNNY     71  48  43 NE9       30.11S
6HR MIN TEMP:  49; 6HR MAX TEMP:  71;

DECATUR        SUNNY     73  51  46 E13       30.10F
6HR MIN TEMP:  48; 6HR MAX TEMP:  73;

FLORA          MOSUNNY   72  51  48 E10       30.08F
6HR MIN TEMP:  57; 6HR MAX TEMP:  72;

GALESBURG      SUNNY     74  54  50 E6        30.11S
JACKSONVILLE   SUNNY     75  52  44 E9        30.09F
6HR MIN TEMP:  49; 6HR MAX TEMP:  75; 6HR PCP:  0.02;

LACON          SUNNY     72  50  46 SE10      30.11S
6HR MIN TEMP:  46; 6HR MAX TEMP:  72;

LAWRENCEVILLE  MOSUNNY   73  53  49 NE9       30.09S
6HR MIN TEMP:  54; 6HR MAX TEMP:  74;

LITCHFIELD     CLOUDY    68  55  62 E6        30.08F
$$


CITY           SKY/WX    TMP DP  RH WIND       PRES   REMARKS
LINCOLN        SUNNY     74  47  38 E6        30.07F
6HR MIN TEMP:  49; 6HR MAX TEMP:  74;

MACOMB         MOSUNNY   72  51  48 E9        30.11F
MATTOON        SUNNY     72  49  44 SE8       30.09S
6HR MIN TEMP:  49; 6HR MAX TEMP:  72;

MT CARMEL AP   MOSUNNY   75  50  41 E9        30.08S
OLNEY-NOBLE AP MOSUNNY   72  52  49 E6        30.08F
PARIS          SUNNY     71  47  43 N6        30.10F
6HR MIN TEMP:  46; 6HR MAX TEMP:  72;

PEORIA         SUNNY     74  51  44 E9        30.11S
6HR MIN TEMP:  50; 6HR MAX TEMP:  74;

PONTIAC        SUNNY     73  48  40 NE5       30.12S
RANTOUL        SUNNY     72  45  38 NE10      30.11F
6HR MIN TEMP:  53; 6HR MAX TEMP:  72;

ROBINSON       SUNNY     73  56  55 E8        30.10R
6HR MIN TEMP:  47; 6HR MAX TEMP:  74;

SPRINGFIELD    SUNNY     73  53  49 SE5       30.09F
6HR MIN TEMP:  48; 6HR MAX TEMP:  74;

TAYLORVILLE    SUNNY     72  50  46 E12       30.08F
$$

...REGIONAL REPORTS...


CITY           SKY/WX    TMP DP  RH WIND       PRES   REMARKS
CHICAGO O`HARE PTSUNNY   69  54  58 VRB7      30.15R
KANKAKEE       SUNNY     69  50  51 NE12G18   30.13F
MOLINE         SUNNY     72  52  49 E7        30.10F
MOUNT VERNON   MOSUNNY   72  55  56 NE8       30.08F
PITTSFIELD     SUNNY     74  54  49 E9        30.08F
QUINCY         SUNNY     70  53  54 SE9       30.07F
ROCKFORD       MOSUNNY   66  54  65 E6        30.17F
$$


CITY           SKY/WX    TMP DP  RH WIND       PRES   REMARKS
BURLINGTON     SUNNY     72  53  51 SE9       30.09F
CEDAR RAPIDS   MOSUNNY   69  54  58 SE10      30.10F
DES MOINES     MOSUNNY   70  53  54 S13       30.08F
KIRKSVILLE     CLOUDY    67  57  70 SE13      30.08F
OTTUMWA        MOSUNNY   69  55  60 E10       30.07F
ST LOUIS       MOSUNNY   71  56  58 NE8       30.08F
$$


CITY           SKY/WX    TMP DP  RH WIND       PRES   REMARKS
TERRE HAUTE    SUNNY     72  48  42 VRB5      30.09F
EVANSVILLE     MOSUNNY   71  53  52 E6        30.07S
INDIANAPOLIS   MOSUNNY   69  49  48 SE6       30.10S
LAFAYETTE      SUNNY     68  46  45 E10       30.11F
MADISON        CLOUDY    55  50  83 SE5       30.19S
MILWAUKEE      CLOUDY    57  50  77 NE10      30.20R
$$




USA.gov is the U.S. government's official web portal to all federal, state and local government web resources and services.